�������l�o���
Date,Time,MP-1(��Sv/h),MP-2(��Sv/h),MP-3(��Sv/h),MP-4(��Sv/h),MP-5(��Sv/h),MP-6(��Sv/h),MP-7(��Sv/h),MP-8(��Sv/h),����,����(m/s),���J
2017/04/20,00:00,1.017,1.634,1.099,1.966,1.335,0.544,0.995,0.922,�k,9.1,��
2017/04/20,00:10,1.018,1.635,1.100,1.963,1.333,0.543,0.997,0.921,�k�k��,9.3,��
2017/04/20,00:20,1.017,1.637,1.098,1.962,1.336,0.543,0.994,0.922,�k�k��,3.3,��
2017/04/20,00:30,1.016,1.634,1.099,1.963,1.333,0.544,0.995,0.922,���쐼,0.8,��
2017/04/20,00:40,1.019,1.635,1.100,1.962,1.335,0.541,0.993,0.922,���k��,3.2,��
2017/04/20,00:50,1.017,1.636,1.098,1.960,1.334,0.543,0.995,0.921,�k��,2.6,��
2017/04/20,01:00,1.019,1.635,1.100,1.962,1.332,0.543,0.995,0.920,��,5.9,��
2017/04/20,01:10,1.017,1.636,1.098,1.962,1.335,0.544,0.996,0.922,���쐼,4.3,��
2017/04/20,01:20,1.017,1.633,1.099,1.960,1.334,0.543,0.996,0.921,��쐼,3.7,��
2017/04/20,01:30,1.015,1.634,1.100,1.965,1.337,0.542,0.993,0.922,�쐼,3.7,��
2017/04/20,01:40,1.015,1.632,1.099,1.961,1.333,0.543,0.996,0.920,��,2.8,��
2017/04/20,01:50,1.017,1.635,1.098,1.960,1.335,0.543,0.994,0.921,���쐼,2.2,��
2017/04/20,02:00,1.014,1.637,1.099,1.964,1.332,0.542,0.994,0.920,���쐼,3.5,��
2017/04/20,02:10,1.016,1.634,1.099,1.963,1.334,0.542,0.993,0.921,��쐼,2.9,��
2017/04/20,02:20,1.014,1.636,1.098,1.959,1.335,0.543,0.995,0.921,���쐼,1.1,��
2017/04/20,02:30,1.016,1.633,1.097,1.958,1.333,0.543,0.995,0.921,�k�k��,2.5,��
2017/04/20,02:40,1.017,1.634,1.098,1.961,1.334,0.543,0.993,0.922,��,2.2,��
2017/04/20,02:50,1.015,1.632,1.097,1.961,1.332,0.542,0.994,0.919,���쓌,2.8,��
2017/04/20,03:00,1.012,1.634,1.096,1.960,1.334,0.544,0.994,0.920,��,3.7,��
2017/04/20,03:10,1.014,1.631,1.095,1.959,1.332,0.540,0.994,0.922,��,4.6,��
2017/04/20,03:20,1.014,1.635,1.096,1.957,1.334,0.543,0.992,0.920,�쓌,2.2,��
2017/04/20,03:30,1.015,1.635,1.097,1.956,1.332,0.542,0.994,0.919,��쐼,2.0,��
2017/04/20,03:40,1.016,1.633,1.095,1.962,1.333,0.542,0.994,0.920,�쐼,3.1,��
2017/04/20,03:50,1.015,1.636,1.095,1.960,1.334,0.542,0.992,0.921,���쐼,3.1,��
2017/04/20,04:00,1.014,1.633,1.096,1.961,1.334,0.542,0.994,0.919,��,3.7,��
2017/04/20,04:10,1.016,1.632,1.096,1.960,1.335,0.543,0.995,0.919,���쐼,3.1,��
2017/04/20,04:20,1.013,1.631,1.097,1.957,1.331,0.541,0.992,0.918,���쐼,3.4,��
2017/04/20,04:30,1.014,1.632,1.095,1.959,1.331,0.541,0.992,0.919,��,4.8,��
2017/04/20,04:40,1.015,1.632,1.095,1.958,1.335,0.541,0.993,0.919,��,4.7,��
2017/04/20,04:50,1.014,1.631,1.095,1.959,1.332,0.542,0.994,0.919,��,4.0,��
2017/04/20,05:00,1.014,1.634,1.095,1.959,1.335,0.540,0.992,0.919,���k��,4.7,��
2017/04/20,05:10,1.014,1.630,1.097,1.958,1.333,0.542,0.994,0.922,���k��,4.6,��
2017/04/20,05:20,1.013,1.629,1.097,1.961,1.331,0.542,0.992,0.920,��,4.1,��
2017/04/20,05:30,1.013,1.634,1.095,1.959,1.333,0.541,0.990,0.919,���k��,5.8,��
2017/04/20,05:40,1.013,1.633,1.094,1.962,1.330,0.541,0.991,0.920,�k��,5.8,��
2017/04/20,05:50,1.016,1.634,1.097,1.961,1.336,0.540,0.993,0.919,���k��,8.2,��
2017/04/20,06:00,1.014,1.634,1.096,1.959,1.331,0.542,0.995,0.919,���k��,10.7,��
2017/04/20,06:10,1.012,1.636,1.097,1.958,1.333,0.542,0.994,0.917,���k��,7.9,��
2017/04/20,06:20,1.015,1.632,1.096,1.959,1.334,0.541,0.992,0.920,�k��,3.1,��
2017/04/20,06:30,1.011,1.633,1.094,1.963,1.333,0.540,0.994,0.920,�k��,3.1,��
2017/04/20,06:40,1.016,1.634,1.098,1.963,1.334,0.542,0.994,0.919,���k��,2.5,��
2017/04/20,06:50,1.016,1.636,1.097,1.959,1.334,0.542,0.994,0.921,�k��,2.3,��
2017/04/20,07:00,1.013,1.636,1.097,1.963,1.332,0.541,0.994,0.920,�k��,3.5,��
2017/04/20,07:10,1.015,1.636,1.096,1.962,1.333,0.542,0.993,0.922,���k��,3.1,��
2017/04/20,07:20,1.015,1.633,1.096,1.964,1.335,0.544,0.994,0.919,�k��,3.4,��
2017/04/20,07:30,1.015,1.637,1.099,1.964,1.333,0.542,0.994,0.922,�k��,2.6,��
2017/04/20,07:40,1.016,1.635,1.098,1.964,1.334,0.542,0.995,0.923,�k��,5.0,��
2017/04/20,07:50,1.016,1.637,1.098,1.965,1.332,0.541,0.994,0.921,�k��,4.3,��
2017/04/20,08:00,1.015,1.638,1.097,1.965,1.337,0.541,0.992,0.921,���k��,4.6,��
2017/04/20,08:10,1.015,1.635,1.100,1.964,1.337,0.543,0.992,0.920,�k�k��,4.0,��
2017/04/20,08:20,1.016,1.636,1.099,1.964,1.336,0.542,0.993,0.920,�k�k��,3.5,��
2017/04/20,08:30,1.015,1.636,1.097,1.963,1.336,0.540,0.993,0.923,�k��,4.2,��
2017/04/20,08:40,1.021,1.631,1.097,1.962,1.337,0.541,0.990,0.924,���k��,4.2,��
2017/04/20,08:50,1.017,1.632,1.099,1.964,1.337,0.541,0.993,0.922,���k��,4.2,��
2017/04/20,09:00,1.018,1.634,1.099,1.963,1.337,0.541,0.993,0.920,���k��,3.8,��
2017/04/20,09:10,1.019,1.633,1.099,1.964,1.339,0.540,0.992,0.924,�k��,2.6,��
2017/04/20,09:20,1.018,1.636,1.098,1.963,1.337,0.541,0.993,0.922,��,3.2,��
2017/04/20,09:30,1.017,1.636,1.101,1.966,1.337,0.540,0.993,0.923,��,4.6,��
2017/04/20,09:40,1.016,1.636,1.100,1.966,1.338,0.542,0.993,0.920,��,5.5,��
2017/04/20,09:50,1.019,1.636,1.100,1.963,1.337,0.543,0.992,0.920,��,5.0,��
2017/04/20,10:00,1.019,1.636,1.101,1.965,1.337,0.540,0.992,0.920,���k��,5.2,��
2017/04/20,10:10,1.018,1.635,1.100,1.964,1.337,0.542,0.993,0.920,��,5.4,��
2017/04/20,10:20,1.018,1.637,1.100,1.964,1.336,0.541,0.994,0.921,��,4.6,��
2017/04/20,10:30,1.017,1.638,1.101,1.966,1.337,0.541,0.991,0.918,���k��,5.6,��
2017/04/20,10:40,1.017,1.634,1.102,1.965,1.337,0.540,0.991,0.922,���k��,3.4,��
2017/04/20,10:50,1.019,1.637,1.099,1.965,1.335,0.540,0.992,0.918,�k��,4.7,��
2017/04/20,11:00,1.020,1.634,1.101,1.966,1.337,0.541,0.992,0.920,�k��,3.3,��
2017/04/20,11:10,1.019,1.637,1.098,1.965,1.336,0.542,0.992,0.919,���k��,2.6,��
2017/04/20,11:20,1.023,1.638,1.103,1.967,1.336,0.541,0.992,0.919,���k��,3.1,��
2017/04/20,11:30,1.005,1.641,1.098,1.967,1.335,0.540,0.990,0.918,��,5.0,��
2017/04/20,11:40,1.004,1.638,1.100,1.967,1.337,0.543,0.989,0.918,���k��,4.1,��
2017/04/20,11:50,1.011,1.636,1.102,1.968,1.336,0.540,0.992,0.918,���k��,3.6,��
2017/04/20,12:00,1.016,1.635,1.102,1.964,1.336,0.541,0.992,0.918,���k��,3.3,��
2017/04/20,12:10,1.017,1.636,1.101,1.966,1.338,0.541,0.991,0.918,���k��,4.5,��
2017/04/20,12:20,1.016,1.637,1.100,1.969,1.338,0.541,0.992,0.918,�k��,4.4,��
2017/04/20,12:30,1.018,1.634,1.102,1.964,1.338,0.542,0.990,0.918,�k��,4.2,��
2017/04/20,12:40,1.016,1.635,1.101,1.966,1.336,0.542,0.992,0.918,�k��,4.4,��
2017/04/20,12:50,1.018,1.636,1.102,1.964,1.337,0.542,0.990,0.920,���k��,4.1,��
2017/04/20,13:00,1.017,1.636,1.103,1.967,1.339,0.541,0.991,0.919,�k��,3.4,��
2017/04/20,13:10,1.019,1.636,1.103,1.966,1.340,0.543,0.993,0.918,���k��,3.7,��
2017/04/20,13:20,1.020,1.640,1.101,1.969,1.339,0.543,0.992,0.917,��,3.4,��
2017/04/20,13:30,1.021,1.639,1.102,1.967,1.338,0.543,0.991,0.919,��,4.4,��
2017/04/20,13:40,1.019,1.638,1.102,1.971,1.337,0.542,0.993,0.920,��,5.3,��
2017/04/20,13:50,1.018,1.638,1.102,1.966,1.337,0.542,0.992,0.919,��,4.7,��
2017/04/20,14:00,1.018,1.638,1.100,1.969,1.336,0.541,0.993,0.921,��,4.8,��
2017/04/20,14:10,1.016,1.641,1.098,1.971,1.337,0.542,0.995,0.922,��,4.0,��
2017/04/20,14:20,1.017,1.636,1.101,1.968,1.337,0.541,0.991,0.920,��,4.0,��
2017/04/20,14:30,1.017,1.640,1.104,1.970,1.339,0.541,0.992,0.920,���쓌,4.2,��
2017/04/20,14:40,1.018,1.641,1.103,1.971,1.340,0.544,0.993,0.921,���쓌,3.5,��
2017/04/20,14:50,1.019,1.641,1.102,1.969,1.339,0.544,0.992,0.918,���쓌,2.8,��
2017/04/20,15:00,1.016,1.642,1.100,1.971,1.337,0.543,0.992,0.918,���쓌,3.4,��
2017/04/20,15:10,1.017,1.643,1.100,1.971,1.342,0.543,0.994,0.917,�쓌,3.8,��
2017/04/20,15:20,1.020,1.648,1.101,1.971,1.340,0.543,0.993,0.920,���쓌,5.2,��
2017/04/20,15:30,1.018,1.645,1.104,1.970,1.338,0.544,0.992,0.918,��쓌,5.9,��
2017/04/20,15:40,1.018,1.643,1.103,1.969,1.340,0.544,0.994,0.918,��쓌,6.8,��
2017/04/20,15:50,1.019,1.647,1.101,1.968,1.342,0.543,0.993,0.918,��쓌,7.4,��
2017/04/20,16:00,1.017,1.645,1.102,1.968,1.340,0.543,0.994,0.918,��쓌,7.7,��
2017/04/20,16:10,1.018,1.644,1.100,1.969,1.340,0.544,0.992,0.918,��쓌,7.0,��
2017/04/20,16:20,1.018,1.644,1.102,1.967,1.341,0.544,0.992,0.919,��쓌,7.2,��
2017/04/20,16:30,1.019,1.643,1.100,1.969,1.340,0.542,0.992,0.920,��쓌,5.6,��
2017/04/20,16:40,1.017,1.647,1.100,1.968,1.341,0.543,0.992,0.921,��쓌,6.3,��
2017/04/20,16:50,1.020,1.646,1.102,1.968,1.341,0.543,0.991,0.919,��쓌,5.4,��
2017/04/20,17:00,1.017,1.648,1.102,1.969,1.340,0.543,0.994,0.921,��쓌,5.3,��
2017/04/20,17:10,1.019,1.645,1.100,1.970,1.342,0.544,0.993,0.923,��쓌,5.8,��
2017/04/20,17:20,1.020,1.648,1.105,1.967,1.341,0.542,0.992,0.921,��쓌,6.6,��
2017/04/20,17:30,1.018,1.645,1.102,1.967,1.339,0.543,0.992,0.920,��쓌,6.1,��
2017/04/20,17:40,1.020,1.648,1.100,1.971,1.342,0.545,0.991,0.921,��쓌,6.3,��
2017/04/20,17:50,1.020,1.644,1.106,1.970,1.343,0.545,0.990,0.923,��쓌,5.8,��
2017/04/20,18:00,1.019,1.645,1.102,1.970,1.343,0.545,0.991,0.920,��쓌,5.8,��
2017/04/20,18:10,1.020,1.648,1.102,1.972,1.344,0.544,0.992,0.922,��쓌,6.1,��
2017/04/20,18:20,1.020,1.648,1.104,1.970,1.346,0.544,0.991,0.920,��쓌,6.1,��
2017/04/20,18:30,1.019,1.651,1.101,1.966,1.346,0.544,0.992,0.921,��쓌,5.8,��
2017/04/20,18:40,1.018,1.644,1.100,1.970,1.342,0.542,0.995,0.921,��쓌,4.4,��
2017/04/20,18:50,1.021,1.647,1.101,1.967,1.346,0.543,0.993,0.923,��쓌,5.1,��
2017/04/20,19:00,1.020,1.648,1.102,1.970,1.343,0.544,0.992,0.919,��쓌,4.9,��
2017/04/20,19:10,1.019,1.647,1.102,1.973,1.343,0.544,0.994,0.921,��쓌,5.5,��
2017/04/20,19:20,1.020,1.651,1.101,1.966,1.344,0.546,0.995,0.920,��쓌,5.4,��
2017/04/20,19:30,1.019,1.645,1.103,1.970,1.341,0.543,0.993,0.921,��쓌,5.8,��
2017/04/20,19:40,1.020,1.645,1.101,1.968,1.344,0.543,0.997,0.922,��,5.7,��
2017/04/20,19:50,1.021,1.643,1.102,1.965,1.344,0.543,0.996,0.920,��,5.7,��
2017/04/20,20:00,1.019,1.644,1.101,1.967,1.345,0.544,0.993,0.922,��쐼,5.8,��
2017/04/20,20:10,1.016,1.647,1.103,1.967,1.345,0.543,0.993,0.920,��,5.8,��
2017/04/20,20:20,1.019,1.645,1.102,1.970,1.346,0.542,0.994,0.919,��,6.9,��
2017/04/20,20:30,1.020,1.643,1.101,1.970,1.346,0.546,0.995,0.922,��,6.4,��
2017/04/20,20:40,1.022,1.643,1.102,1.967,1.343,0.544,0.995,0.921,��,6.4,��
2017/04/20,20:50,1.020,1.644,1.101,1.970,1.345,0.544,0.994,0.918,��,5.9,��
2017/04/20,21:00,1.020,1.645,1.101,1.968,1.343,0.543,0.995,0.919,��,5.6,��
2017/04/20,21:10,1.022,1.644,1.102,1.966,1.343,0.543,0.993,0.920,��,4.8,��
2017/04/20,21:20,1.022,1.645,1.101,1.968,1.345,0.544,0.993,0.922,��,4.9,��
2017/04/20,21:30,1.021,1.643,1.103,1.967,1.346,0.543,0.996,0.921,��,4.9,��
2017/04/20,21:40,1.020,1.647,1.101,1.968,1.346,0.544,0.995,0.922,��,4.3,��
2017/04/20,21:50,1.020,1.642,1.102,1.968,1.343,0.544,0.994,0.921,��,3.5,��
2017/04/20,22:00,1.020,1.643,1.102,1.968,1.346,0.543,0.996,0.921,��,3.4,��
2017/04/20,22:10,1.020,1.643,1.101,1.965,1.340,0.543,0.995,0.921,��,2.6,��
2017/04/20,22:20,1.021,1.641,1.100,1.968,1.346,0.542,0.995,0.920,��쓌,4.0,��
2017/04/20,22:30,1.019,1.644,1.105,1.967,1.346,0.542,0.995,0.921,��쓌,4.3,��
2017/04/20,22:40,1.021,1.645,1.102,1.967,1.345,0.542,0.994,0.920,��쓌,2.5,��
2017/04/20,22:50,1.018,1.644,1.103,1.969,1.347,0.543,0.997,0.921,��쓌,3.0,��
2017/04/20,23:00,1.021,1.644,1.100,1.967,1.345,0.543,0.995,0.921,��쓌,1.9,��
2017/04/20,23:10,1.020,1.644,1.099,1.969,1.345,0.543,0.994,0.921,��쓌,3.1,��
2017/04/20,23:20,1.020,1.643,1.101,1.967,1.346,0.544,0.993,0.920,��쓌,4.4,��
2017/04/20,23:30,1.020,1.643,1.101,1.971,1.345,0.543,0.994,0.920,��,5.2,��
2017/04/20,23:40,1.017,1.647,1.103,1.966,1.344,0.543,0.994,0.922,��,5.8,��
2017/04/20,23:50,1.018,1.644,1.101,1.967,1.346,0.542,0.994,0.920,��쓌,5.0,��
